date,time,SUV Intensity [MED/Hr],UV Index,Daily total [MED],Since Last [MED]
18/08/2023,00:00:12,0.000,0.0,0.0,0.0
18/08/2023,00:01:12,0.000,0.0,0.0,0.0
18/08/2023,00:02:14,-0.001,0.0,0.0,0.0
18/08/2023,00:03:14,0.001,0.0,0.0,0.0
18/08/2023,00:04:16,-0.000,0.0,0.0,0.0
18/08/2023,00:05:14,-0.001,0.0,0.0,0.0
18/08/2023,00:06:14,0.001,0.0,0.0,0.0
18/08/2023,00:07:12,-0.001,0.0,0.0,0.0
18/08/2023,00:08:12,0.001,0.0,0.0,0.0
18/08/2023,00:09:14,0.000,0.0,0.0,0.0
18/08/2023,00:10:14,-0.000,0.0,0.0,0.0
18/08/2023,00:11:15,0.000,0.0,0.0,0.0
18/08/2023,00:12:14,0.000,0.0,0.0,0.0
18/08/2023,00:13:14,0.000,0.0,0.0,0.0
18/08/2023,00:14:14,0.000,0.0,0.0,0.0
18/08/2023,00:15:14,0.000,0.0,0.0,0.0
18/08/2023,00:16:13,0.000,0.0,0.0,0.0
18/08/2023,00:17:14,0.001,0.0,0.0,0.0
18/08/2023,00:18:14,-0.000,0.0,0.0,0.0
18/08/2023,00:19:14,0.000,0.0,0.0,0.0
18/08/2023,00:20:14,-0.000,0.0,0.0,0.0
18/08/2023,00:21:14,0.001,0.0,0.0,0.0
18/08/2023,00:22:14,0.000,0.0,0.0,0.0
18/08/2023,00:23:14,0.000,0.0,0.0,0.0
18/08/2023,00:24:13,-0.001,0.0,0.0,0.0
18/08/2023,00:25:14,-0.000,0.0,0.0,0.0
18/08/2023,00:26:14,0.000,0.0,0.0,0.0
18/08/2023,00:27:14,0.000,0.0,0.0,0.0
18/08/2023,00:28:14,0.000,0.0,0.0,0.0
18/08/2023,00:29:14,0.000,0.0,0.0,0.0
18/08/2023,00:30:14,0.000,0.0,0.0,0.0
18/08/2023,00:31:14,0.000,0.0,0.0,0.0
18/08/2023,00:32:14,0.000,0.0,0.0,0.0
18/08/2023,00:33:14,-0.001,0.0,0.0,0.0
18/08/2023,00:34:14,0.001,0.0,0.0,0.0
18/08/2023,00:35:14,0.000,0.0,0.0,0.0
18/08/2023,00:36:14,0.000,0.0,0.0,0.0
18/08/2023,00:37:14,-0.001,0.0,0.0,0.0
18/08/2023,00:38:14,-0.001,0.0,0.0,0.0
18/08/2023,00:39:14,0.001,0.0,0.0,0.0
18/08/2023,00:40:14,0.000,0.0,0.0,0.0
18/08/2023,00:41:14,0.000,0.0,0.0,0.0
18/08/2023,00:42:14,-0.000,0.0,0.0,0.0
18/08/2023,00:43:14,0.001,0.0,0.0,0.0
18/08/2023,00:44:14,0.000,0.0,0.0,0.0
18/08/2023,00:45:14,-0.001,0.0,0.0,0.0
18/08/2023,00:46:14,0.000,0.0,0.0,0.0
18/08/2023,00:47:14,0.000,0.0,0.0,0.0
18/08/2023,00:48:14,0.000,0.0,0.0,0.0
18/08/2023,00:49:14,0.000,0.0,0.0,0.0
18/08/2023,00:50:14,-0.000,0.0,0.0,0.0
18/08/2023,00:51:14,0.000,0.0,0.0,0.0
18/08/2023,00:52:12,0.000,0.0,0.0,0.0
18/08/2023,00:53:12,0.000,0.0,0.0,0.0
18/08/2023,00:54:14,0.000,0.0,0.0,0.0
18/08/2023,00:55:14,0.000,0.0,0.0,0.0
18/08/2023,00:56:12,-0.001,0.0,0.0,0.0
18/08/2023,00:57:12,-0.001,0.0,0.0,0.0
18/08/2023,00:58:14,0.001,0.0,0.0,0.0
18/08/2023,00:59:14,-0.001,0.0,0.0,0.0
18/08/2023,01:00:14,-0.000,0.0,0.0,0.0
18/08/2023,01:01:14,0.001,0.0,0.0,0.0
18/08/2023,01:02:14,0.000,0.0,0.0,0.0
18/08/2023,01:03:14,0.000,0.0,0.0,0.0
18/08/2023,01:04:14,0.000,0.0,0.0,0.0
18/08/2023,01:05:14,0.000,0.0,0.0,0.0
18/08/2023,01:06:14,0.000,0.0,0.0,0.0
18/08/2023,01:07:14,-0.001,0.0,0.0,0.0
18/08/2023,01:08:14,0.000,0.0,0.0,0.0
18/08/2023,01:09:14,0.000,0.0,0.0,0.0
18/08/2023,01:10:12,0.000,0.0,0.0,0.0
18/08/2023,01:11:12,0.000,0.0,0.0,0.0
18/08/2023,01:12:15,0.000,0.0,0.0,0.0
18/08/2023,01:13:14,0.000,0.0,0.0,0.0
18/08/2023,01:14:14,-0.001,0.0,0.0,0.0
18/08/2023,01:15:14,0.000,0.0,0.0,0.0
18/08/2023,01:16:14,0.000,0.0,0.0,0.0
18/08/2023,01:17:14,0.000,0.0,0.0,0.0
18/08/2023,01:18:14,0.001,0.0,0.0,0.0
18/08/2023,01:19:14,-0.001,0.0,0.0,0.0
18/08/2023,01:20:15,0.000,0.0,0.0,0.0
18/08/2023,01:21:15,0.001,0.0,0.0,0.0
18/08/2023,01:22:14,0.001,0.0,0.0,0.0
18/08/2023,01:23:14,-0.000,0.0,0.0,0.0
18/08/2023,01:24:14,-0.001,0.0,0.0,0.0
18/08/2023,01:25:14,0.000,0.0,0.0,0.0
18/08/2023,01:26:14,0.000,0.0,0.0,0.0
18/08/2023,01:27:14,-0.000,0.0,0.0,0.0
18/08/2023,01:28:15,0.000,0.0,0.0,0.0
18/08/2023,01:29:14,0.000,0.0,0.0,0.0
18/08/2023,01:30:14,0.000,0.0,0.0,0.0
18/08/2023,01:31:14,-0.000,0.0,0.0,0.0
18/08/2023,01:32:14,0.000,0.0,0.0,0.0
18/08/2023,01:33:14,0.000,0.0,0.0,0.0
18/08/2023,01:34:14,0.000,0.0,0.0,0.0
18/08/2023,01:35:14,-0.001,0.0,0.0,0.0
18/08/2023,01:36:14,-0.000,0.0,0.0,0.0
18/08/2023,01:37:14,0.000,0.0,0.0,0.0
18/08/2023,01:38:12,-0.001,0.0,0.0,0.0
18/08/2023,01:39:12,0.001,0.0,0.0,0.0
18/08/2023,01:40:14,-0.000,0.0,0.0,0.0
18/08/2023,01:41:14,0.000,0.0,0.0,0.0
18/08/2023,01:42:12,0.000,0.0,0.0,0.0
18/08/2023,01:43:12,0.000,0.0,0.0,0.0
18/08/2023,01:44:14,-0.001,0.0,0.0,0.0
18/08/2023,01:45:14,0.001,0.0,0.0,0.0
18/08/2023,01:46:14,0.000,0.0,0.0,0.0
18/08/2023,01:47:14,-0.001,0.0,0.0,0.0
18/08/2023,01:48:15,0.000,0.0,0.0,0.0
18/08/2023,01:49:12,0.001,0.0,0.0,0.0
18/08/2023,01:50:12,-0.000,0.0,0.0,0.0
18/08/2023,01:51:14,0.000,0.0,0.0,0.0
18/08/2023,01:52:14,0.000,0.0,0.0,0.0
18/08/2023,01:53:14,0.001,0.0,0.0,0.0
18/08/2023,01:54:14,0.000,0.0,0.0,0.0
18/08/2023,01:55:14,0.001,0.0,0.0,0.0
18/08/2023,01:56:14,0.000,0.0,0.0,0.0
18/08/2023,01:57:14,-0.000,0.0,0.0,0.0
18/08/2023,01:58:14,0.000,0.0,0.0,0.0
18/08/2023,01:59:14,0.000,0.0,0.0,0.0
18/08/2023,02:00:14,-0.000,0.0,0.0,0.0
18/08/2023,02:01:14,0.001,0.0,0.0,0.0
18/08/2023,02:02:14,0.000,0.0,0.0,0.0
18/08/2023,02:03:14,-0.001,0.0,0.0,0.0
18/08/2023,02:04:14,0.000,0.0,0.0,0.0
18/08/2023,02:05:14,0.000,0.0,0.0,0.0
18/08/2023,02:06:14,-0.000,0.0,0.0,0.0
18/08/2023,02:07:14,-0.000,0.0,0.0,0.0
18/08/2023,02:08:14,-0.001,0.0,0.0,0.0
18/08/2023,02:09:14,-0.001,0.0,0.0,0.0
18/08/2023,02:10:14,-0.000,0.0,0.0,0.0
18/08/2023,02:11:15,-0.001,0.0,0.0,0.0
18/08/2023,02:12:14,0.000,0.0,0.0,0.0
18/08/2023,02:13:14,0.001,0.0,0.0,0.0
18/08/2023,02:14:12,0.000,0.0,0.0,0.0
18/08/2023,02:15:12,0.001,0.0,0.0,0.0
18/08/2023,02:16:14,0.000,0.0,0.0,0.0
18/08/2023,02:17:14,0.001,0.0,0.0,0.0
18/08/2023,02:18:14,0.000,0.0,0.0,0.0
18/08/2023,02:19:14,0.000,0.0,0.0,0.0
18/08/2023,02:20:14,-0.001,0.0,0.0,0.0
18/08/2023,02:21:14,0.001,0.0,0.0,0.0
18/08/2023,02:22:14,0.001,0.0,0.0,0.0
18/08/2023,02:23:14,0.001,0.0,0.0,0.0
18/08/2023,02:24:15,0.000,0.0,0.0,0.0
18/08/2023,02:25:14,0.001,0.0,0.0,0.0
18/08/2023,02:26:14,0.000,0.0,0.0,0.0
18/08/2023,02:27:14,-0.000,0.0,0.0,0.0
18/08/2023,02:28:14,0.000,0.0,0.0,0.0
18/08/2023,02:29:14,0.000,0.0,0.0,0.0
18/08/2023,02:30:15,-0.000,0.0,0.0,0.0
18/08/2023,02:31:14,0.001,0.0,0.0,0.0
18/08/2023,02:32:14,0.000,0.0,0.0,0.0
18/08/2023,02:33:14,0.000,0.0,0.0,0.0
18/08/2023,02:34:14,0.000,0.0,0.0,0.0
18/08/2023,02:35:14,0.000,0.0,0.0,0.0
18/08/2023,02:36:14,0.000,0.0,0.0,0.0
18/08/2023,02:37:12,0.001,0.0,0.0,0.0
18/08/2023,02:38:13,-0.000,0.0,0.0,0.0
18/08/2023,02:39:14,0.001,0.0,0.0,0.0
18/08/2023,02:40:17,0.001,0.0,0.0,0.0
18/08/2023,02:41:17,0.000,0.0,0.0,0.0
18/08/2023,02:42:14,0.000,0.0,0.0,0.0
18/08/2023,02:43:15,0.000,0.0,0.0,0.0
18/08/2023,02:44:14,0.000,0.0,0.0,0.0
18/08/2023,02:45:14,0.000,0.0,0.0,0.0
18/08/2023,02:46:14,0.001,0.0,0.0,0.0
18/08/2023,02:47:14,-0.001,0.0,0.0,0.0
18/08/2023,02:48:15,0.000,0.0,0.0,0.0
18/08/2023,02:49:14,0.000,0.0,0.0,0.0
18/08/2023,02:50:15,0.000,0.0,0.0,0.0
18/08/2023,02:51:14,0.000,0.0,0.0,0.0
18/08/2023,02:52:14,0.000,0.0,0.0,0.0
18/08/2023,02:53:14,0.000,0.0,0.0,0.0
18/08/2023,02:54:14,0.000,0.0,0.0,0.0
18/08/2023,02:55:14,0.000,0.0,0.0,0.0
18/08/2023,02:56:14,0.000,0.0,0.0,0.0
18/08/2023,02:57:14,0.000,0.0,0.0,0.0
18/08/2023,02:58:14,0.000,0.0,0.0,0.0
18/08/2023,02:59:14,0.000,0.0,0.0,0.0
18/08/2023,03:00:14,0.000,0.0,0.0,0.0
18/08/2023,03:01:15,0.000,0.0,0.0,0.0
18/08/2023,03:02:14,0.000,0.0,0.0,0.0
18/08/2023,03:03:14,0.001,0.0,0.0,0.0
18/08/2023,03:04:14,0.000,0.0,0.0,0.0
18/08/2023,03:05:14,0.000,0.0,0.0,0.0
18/08/2023,03:06:15,-0.000,0.0,0.0,0.0
18/08/2023,03:07:14,0.000,0.0,0.0,0.0
18/08/2023,03:08:14,0.001,0.0,0.0,0.0
18/08/2023,03:09:14,-0.001,0.0,0.0,0.0
18/08/2023,03:10:14,0.000,0.0,0.0,0.0
18/08/2023,03:11:14,-0.001,0.0,0.0,0.0
18/08/2023,03:12:14,-0.001,0.0,0.0,0.0
18/08/2023,03:13:15,-0.000,0.0,0.0,0.0
18/08/2023,03:14:14,-0.001,0.0,0.0,0.0
18/08/2023,03:15:14,-0.000,0.0,0.0,0.0
18/08/2023,03:16:14,-0.000,0.0,0.0,0.0
18/08/2023,03:17:15,-0.001,0.0,0.0,0.0
18/08/2023,03:18:14,0.000,0.0,0.0,0.0
18/08/2023,03:19:15,0.000,0.0,0.0,0.0
18/08/2023,03:20:14,-0.000,0.0,0.0,0.0
18/08/2023,03:21:14,0.000,0.0,0.0,0.0
18/08/2023,03:22:15,0.000,0.0,0.0,0.0
18/08/2023,03:23:14,0.000,0.0,0.0,0.0
18/08/2023,03:24:15,-0.001,0.0,0.0,0.0
18/08/2023,03:25:14,0.001,0.0,0.0,0.0
18/08/2023,03:26:14,0.000,0.0,0.0,0.0
18/08/2023,03:27:15,0.000,0.0,0.0,0.0
18/08/2023,03:28:15,0.000,0.0,0.0,0.0
18/08/2023,03:29:14,0.000,0.0,0.0,0.0
18/08/2023,03:30:14,-0.000,0.0,0.0,0.0
18/08/2023,03:31:13,0.000,0.0,0.0,0.0
18/08/2023,03:32:12,0.000,0.0,0.0,0.0
18/08/2023,03:33:14,0.000,0.0,0.0,0.0
18/08/2023,03:34:14,0.000,0.0,0.0,0.0
18/08/2023,03:35:14,0.000,0.0,0.0,0.0
18/08/2023,03:36:15,0.000,0.0,0.0,0.0
18/08/2023,03:37:14,0.000,0.0,0.0,0.0
18/08/2023,03:38:15,0.000,0.0,0.0,0.0
18/08/2023,03:39:14,0.000,0.0,0.0,0.0
18/08/2023,03:40:14,0.000,0.0,0.0,0.0
18/08/2023,03:41:19,0.001,0.0,0.0,0.0
18/08/2023,03:42:15,0.000,0.0,0.0,0.0
18/08/2023,03:43:15,0.000,0.0,0.0,0.0
18/08/2023,03:44:14,0.000,0.0,0.0,0.0
18/08/2023,03:45:14,0.001,0.0,0.0,0.0
18/08/2023,03:46:14,0.000,0.0,0.0,0.0
18/08/2023,03:47:14,0.000,0.0,0.0,0.0
18/08/2023,03:48:14,0.001,0.0,0.0,0.0
18/08/2023,03:49:12,-0.000,0.0,0.0,0.0
18/08/2023,03:50:12,0.001,0.0,0.0,0.0
18/08/2023,03:51:14,0.001,0.0,0.0,0.0
18/08/2023,03:52:15,-0.001,0.0,0.0,0.0
18/08/2023,03:53:14,0.000,0.0,0.0,0.0
18/08/2023,03:54:14,-0.001,0.0,0.0,0.0
18/08/2023,03:55:14,0.001,0.0,0.0,0.0
18/08/2023,03:56:14,0.001,0.0,0.0,0.0
18/08/2023,03:57:14,0.001,0.0,0.0,0.0
18/08/2023,03:58:14,0.001,0.0,0.0,0.0
18/08/2023,03:59:15,-0.000,0.0,0.0,0.0
18/08/2023,04:00:14,0.001,0.0,0.0,0.0
18/08/2023,04:01:14,0.000,0.0,0.0,0.0
18/08/2023,04:02:14,0.000,0.0,0.0,0.0
18/08/2023,04:03:14,0.001,0.0,0.0,0.0
18/08/2023,04:04:14,0.000,0.0,0.0,0.0
18/08/2023,04:05:14,0.000,0.0,0.0,0.0
18/08/2023,04:06:14,0.001,0.0,0.0,0.0
18/08/2023,04:07:16,0.000,0.0,0.0,0.0
18/08/2023,04:08:15,-0.001,0.0,0.0,0.0
18/08/2023,04:09:14,0.000,0.0,0.0,0.0
18/08/2023,04:10:14,0.000,0.0,0.0,0.0
18/08/2023,04:11:15,0.001,0.0,0.0,0.0
18/08/2023,04:12:14,0.001,0.0,0.0,0.0
18/08/2023,04:13:14,0.000,0.0,0.0,0.0
18/08/2023,04:14:14,-0.000,0.0,0.0,0.0
18/08/2023,04:15:15,0.001,0.0,0.0,0.0
18/08/2023,04:16:15,0.001,0.0,0.0,0.0
18/08/2023,04:17:15,0.000,0.0,0.0,0.0
18/08/2023,04:18:14,0.000,0.0,0.0,0.0
18/08/2023,04:19:14,-0.000,0.0,0.0,0.0
18/08/2023,04:20:14,0.001,0.0,0.0,0.0
18/08/2023,04:21:12,0.000,0.0,0.0,0.0
18/08/2023,04:22:12,0.000,0.0,0.0,0.0
18/08/2023,04:23:14,0.001,0.0,0.0,0.0
18/08/2023,04:24:12,0.001,0.0,0.0,0.0
18/08/2023,04:25:12,0.001,0.0,0.0,0.0
18/08/2023,04:26:15,0.000,0.0,0.0,0.0
18/08/2023,04:27:14,0.000,0.0,0.0,0.0
18/08/2023,04:28:15,0.000,0.0,0.0,0.0
18/08/2023,04:29:15,0.000,0.0,0.0,0.0
18/08/2023,04:30:14,0.000,0.0,0.0,0.0
18/08/2023,04:31:14,0.000,0.0,0.0,0.0
18/08/2023,04:32:14,0.001,0.0,0.0,0.0
18/08/2023,04:33:14,0.001,0.0,0.0,0.0
18/08/2023,04:34:14,0.001,0.0,0.0,0.0
18/08/2023,04:35:15,0.001,0.0,0.0,0.0
18/08/2023,04:36:14,-0.000,0.0,0.0,0.0
18/08/2023,04:37:14,0.002,0.0,0.0,0.0
18/08/2023,04:38:14,0.001,0.0,0.0,0.0
18/08/2023,04:39:14,0.001,0.0,0.0,0.0
18/08/2023,04:40:14,0.001,0.0,0.0,0.0
18/08/2023,04:41:15,0.000,0.0,0.0,0.0
18/08/2023,04:42:14,0.001,0.0,0.0,0.0
18/08/2023,04:43:14,0.001,0.0,0.0,0.0
18/08/2023,04:44:18,0.001,0.0,0.0,0.0
18/08/2023,04:45:15,0.001,0.0,0.0,0.0
18/08/2023,04:46:14,0.001,0.0,0.0,0.0
18/08/2023,04:47:14,0.001,0.0,0.0,0.0
18/08/2023,04:48:15,0.001,0.0,0.0,0.0
18/08/2023,04:49:14,0.001,0.0,0.0,0.0
18/08/2023,04:50:14,0.001,0.0,0.0,0.0
18/08/2023,04:51:13,0.001,0.0,0.0,0.0
18/08/2023,04:52:12,0.001,0.0,0.0,0.0
18/08/2023,04:53:14,0.001,0.0,0.0,0.0
18/08/2023,04:54:14,0.001,0.0,0.0,0.0
18/08/2023,04:55:14,0.001,0.0,0.0,0.0
18/08/2023,04:56:36,0.001,0.0,0.0,0.0
18/08/2023,04:57:13,0.002,0.0,0.0,0.0
18/08/2023,04:58:14,0.001,0.0,0.0,0.0
18/08/2023,04:59:14,0.001,0.0,0.0,0.0
18/08/2023,05:00:15,0.001,0.0,0.0,0.0
18/08/2023,05:01:14,0.002,0.0,0.0,0.0
18/08/2023,05:02:14,0.003,0.0,0.0,0.0
18/08/2023,05:03:12,0.001,0.0,0.0,0.0
18/08/2023,05:04:13,0.002,0.0,0.0,0.0
18/08/2023,05:05:14,0.002,0.0,0.0,0.0
18/08/2023,05:06:13,0.002,0.0,0.0,0.0
18/08/2023,05:07:12,0.003,0.0,0.0,0.0
18/08/2023,05:08:14,0.002,0.0,0.0,0.0
18/08/2023,05:09:14,0.003,0.0,0.0,0.0
18/08/2023,05:10:14,0.002,0.0,0.0,0.0
18/08/2023,05:11:14,0.003,0.0,0.0,0.0
18/08/2023,05:12:15,0.005,0.0,0.0,0.0
18/08/2023,05:13:14,0.004,0.0,0.0,0.0
18/08/2023,05:14:15,0.004,0.0,0.0,0.0
18/08/2023,05:15:14,0.005,0.0,0.0,0.0
18/08/2023,05:16:14,0.005,0.0,0.0,0.0
18/08/2023,05:17:13,0.005,0.0,0.0,0.0
18/08/2023,05:18:12,0.006,0.0,0.0,0.0
18/08/2023,05:19:14,0.007,0.0,0.0,0.0
18/08/2023,05:20:15,0.007,0.0,0.0,0.0
18/08/2023,05:21:12,0.008,0.0,0.0,0.0
18/08/2023,05:22:12,0.007,0.0,0.001,0.001
18/08/2023,05:23:12,0.009,0.0,0.001,0.0
18/08/2023,05:24:14,0.008,0.0,0.001,0.0
18/08/2023,05:25:14,0.008,0.0,0.001,0.0
18/08/2023,05:26:14,0.009,0.0,0.001,0.0
18/08/2023,05:27:13,0.010,0.0,0.001,0.0
18/08/2023,05:28:13,0.010,0.0,0.001,0.0
18/08/2023,05:29:15,0.011,0.0,0.002,0.001
18/08/2023,05:30:14,0.011,0.0,0.002,0.0
18/08/2023,05:31:14,0.012,0.0,0.002,0.0
18/08/2023,05:32:14,0.012,0.0,0.002,0.0
18/08/2023,05:33:14,0.013,0.0,0.002,0.0
18/08/2023,05:34:14,0.013,0.0,0.003,0.001
18/08/2023,05:35:13,0.014,0.0,0.003,0.0
18/08/2023,05:36:12,0.015,0.0,0.003,0.0
18/08/2023,05:37:14,0.015,0.0,0.003,0.0
18/08/2023,05:38:14,0.016,0.0,0.004,0.001
18/08/2023,05:39:16,0.017,0.0,0.004,0.0
18/08/2023,05:40:14,0.017,0.0,0.004,0.0
18/08/2023,05:41:14,0.019,0.0,0.004,0.0
18/08/2023,05:42:14,0.018,0.0,0.005,0.001
18/08/2023,05:43:14,0.019,0.0,0.005,0.0
18/08/2023,05:44:15,0.021,0.0,0.005,0.0
18/08/2023,05:45:14,0.021,0.0,0.006,0.001
18/08/2023,05:46:14,0.022,0.0,0.006,0.0
18/08/2023,05:47:14,0.022,0.0,0.006,0.0
18/08/2023,05:48:14,0.023,0.0,0.007,0.001
18/08/2023,05:49:14,0.024,0.0,0.007,0.0
18/08/2023,05:50:14,0.023,0.0,0.008,0.001
18/08/2023,05:51:14,0.025,0.0,0.008,0.0
18/08/2023,05:52:15,0.026,0.0,0.008,0.0
18/08/2023,05:53:14,0.026,0.0,0.009,0.001
18/08/2023,05:54:15,0.026,0.0,0.009,0.0
18/08/2023,05:55:14,0.027,0.0,0.01,0.001
18/08/2023,05:56:15,0.026,0.0,0.01,0.0
18/08/2023,05:57:16,0.026,0.0,0.011,0.001
18/08/2023,05:58:14,0.026,0.0,0.011,0.0
18/08/2023,05:59:15,0.023,0.0,0.011,0.0
18/08/2023,06:00:14,0.020,0.0,0.012,0.001
18/08/2023,06:01:14,0.019,0.0,0.012,0.0
18/08/2023,06:02:15,0.020,0.0,0.012,0.0
18/08/2023,06:03:15,0.019,0.0,0.013,0.001
18/08/2023,06:04:12,0.018,0.0,0.013,0.0
18/08/2023,06:05:13,0.018,0.0,0.013,0.0
18/08/2023,06:06:15,0.017,0.0,0.014,0.001
18/08/2023,06:07:15,0.015,0.0,0.014,0.0
18/08/2023,06:08:14,0.015,0.0,0.014,0.0
18/08/2023,06:09:14,0.016,0.0,0.014,0.0
18/08/2023,06:10:14,0.016,0.0,0.015,0.001
18/08/2023,06:11:15,0.014,0.0,0.015,0.0
18/08/2023,06:12:14,0.013,0.0,0.015,0.0
18/08/2023,06:13:15,0.014,0.0,0.015,0.0
18/08/2023,06:14:14,0.014,0.0,0.016,0.001
18/08/2023,06:15:15,0.013,0.0,0.016,0.0
18/08/2023,06:16:14,0.012,0.0,0.016,0.0
18/08/2023,06:17:15,0.011,0.0,0.016,0.0
18/08/2023,06:18:14,0.011,0.0,0.016,0.0
18/08/2023,06:19:15,0.011,0.0,0.017,0.001
18/08/2023,06:20:15,0.012,0.0,0.017,0.0
18/08/2023,06:21:15,0.012,0.0,0.017,0.0
18/08/2023,06:22:14,0.011,0.0,0.017,0.0
18/08/2023,06:23:15,0.012,0.0,0.017,0.0
18/08/2023,06:24:14,0.013,0.0,0.018,0.001
18/08/2023,06:25:14,0.016,0.0,0.018,0.0
18/08/2023,06:26:12,0.014,0.0,0.018,0.0
18/08/2023,06:27:12,0.016,0.0,0.018,0.0
18/08/2023,06:28:13,0.015,0.0,0.019,0.001
18/08/2023,06:29:13,0.016,0.0,0.019,0.0
18/08/2023,06:30:15,0.016,0.0,0.019,0.0
18/08/2023,06:31:14,0.015,0.0,0.019,0.0
18/08/2023,06:32:14,0.014,0.0,0.02,0.001
18/08/2023,06:33:15,0.012,0.0,0.02,0.0
18/08/2023,06:34:14,0.013,0.0,0.02,0.0
18/08/2023,06:35:15,0.012,0.0,0.02,0.0
18/08/2023,06:36:14,0.011,0.0,0.02,0.0
18/08/2023,06:37:15,0.011,0.0,0.021,0.001
18/08/2023,06:38:14,0.010,0.0,0.021,0.0
18/08/2023,06:39:16,0.009,0.0,0.021,0.0
18/08/2023,06:40:15,0.009,0.0,0.021,0.0
18/08/2023,06:41:15,0.009,0.0,0.021,0.0
18/08/2023,06:42:14,0.011,0.0,0.021,0.0
18/08/2023,06:43:14,0.010,0.0,0.022,0.001
18/08/2023,06:44:14,0.011,0.0,0.022,0.0
18/08/2023,06:45:15,0.012,0.0,0.022,0.0
18/08/2023,06:46:14,0.016,0.0,0.022,0.0
18/08/2023,06:47:14,0.015,0.0,0.022,0.0
18/08/2023,06:48:14,0.015,0.0,0.023,0.001
18/08/2023,06:49:15,0.016,0.0,0.023,0.0
18/08/2023,06:50:14,0.016,0.0,0.023,0.0
18/08/2023,06:51:14,0.018,0.0,0.023,0.0
18/08/2023,06:52:14,0.017,0.0,0.024,0.001
18/08/2023,06:53:15,0.019,0.0,0.024,0.0
18/08/2023,06:54:14,0.019,0.0,0.024,0.0
18/08/2023,06:55:15,0.021,0.0,0.025,0.001
18/08/2023,06:56:14,0.028,0.0,0.025,0.0
18/08/2023,06:57:15,0.038,0.0,0.026,0.001
18/08/2023,06:58:14,0.041,0.0,0.026,0.0
18/08/2023,06:59:14,0.042,0.0,0.027,0.001
18/08/2023,07:00:15,0.043,0.0,0.028,0.001
18/08/2023,07:01:15,0.047,0.0,0.029,0.001
18/08/2023,07:02:14,0.047,0.0,0.029,0.0
18/08/2023,07:03:37,0.044,0.0,0.03,0.001
18/08/2023,07:04:14,0.043,0.0,0.031,0.001
18/08/2023,07:05:15,0.042,0.0,0.032,0.001
18/08/2023,07:06:12,0.039,0.0,0.032,0.0
18/08/2023,07:07:13,0.039,0.0,0.033,0.001
18/08/2023,07:08:15,0.040,0.0,0.034,0.001
18/08/2023,07:09:14,0.039,0.0,0.034,0.0
18/08/2023,07:10:15,0.046,0.0,0.035,0.001
18/08/2023,07:11:14,0.049,0.0,0.036,0.001
18/08/2023,07:12:14,0.052,0.0,0.037,0.001
18/08/2023,07:13:14,0.057,0.0,0.037,0.0
18/08/2023,07:14:15,0.058,0.0,0.038,0.001
18/08/2023,07:15:15,0.053,0.0,0.039,0.001
18/08/2023,07:16:15,0.046,0.0,0.04,0.001
18/08/2023,07:17:14,0.040,0.0,0.041,0.001
18/08/2023,07:18:15,0.038,0.0,0.042,0.001
18/08/2023,07:19:15,0.041,0.0,0.042,0.0
18/08/2023,07:20:14,0.045,0.0,0.043,0.001
18/08/2023,07:21:14,0.044,0.0,0.044,0.001
18/08/2023,07:22:14,0.042,0.0,0.044,0.0
18/08/2023,07:23:15,0.037,0.0,0.045,0.001
18/08/2023,07:24:13,0.036,0.0,0.046,0.001
18/08/2023,07:25:12,0.038,0.0,0.046,0.0
18/08/2023,07:26:14,0.037,0.0,0.047,0.001
18/08/2023,07:27:14,0.036,0.0,0.047,0.0
18/08/2023,07:28:13,0.035,0.0,0.048,0.001
18/08/2023,07:29:12,0.037,0.0,0.049,0.001
18/08/2023,07:30:14,0.037,0.0,0.049,0.0
18/08/2023,07:31:13,0.040,0.0,0.05,0.001
18/08/2023,07:32:13,0.040,0.0,0.051,0.001
18/08/2023,07:33:14,0.037,0.0,0.051,0.0
18/08/2023,07:34:15,0.042,0.0,0.052,0.001
18/08/2023,07:35:14,0.044,0.0,0.053,0.001
18/08/2023,07:36:15,0.049,0.0,0.053,0.0
18/08/2023,07:37:15,0.050,0.0,0.054,0.001
18/08/2023,07:38:14,0.046,0.0,0.055,0.001
18/08/2023,07:39:15,0.047,0.0,0.056,0.001
18/08/2023,07:40:14,0.049,0.0,0.057,0.001
18/08/2023,07:41:15,0.051,0.0,0.057,0.0
18/08/2023,07:42:14,0.048,0.0,0.058,0.001
18/08/2023,07:43:14,0.048,0.0,0.059,0.001
18/08/2023,07:44:14,0.052,0.0,0.06,0.001
18/08/2023,07:45:15,0.063,0.0,0.061,0.001
18/08/2023,07:46:15,0.069,0.0,0.062,0.001
18/08/2023,07:47:15,0.068,0.0,0.063,0.001
18/08/2023,07:48:15,0.066,0.0,0.064,0.001
18/08/2023,07:49:15,0.064,0.0,0.065,0.001
18/08/2023,07:50:12,0.058,0.0,0.066,0.001
18/08/2023,07:51:13,0.051,0.0,0.067,0.001
18/08/2023,07:52:15,0.047,0.0,0.068,0.001
18/08/2023,07:53:15,0.044,0.0,0.069,0.001
18/08/2023,07:54:14,0.045,0.0,0.07,0.001
18/08/2023,07:55:14,0.043,0.0,0.07,0.0
18/08/2023,07:56:15,0.040,0.0,0.071,0.001
18/08/2023,07:57:14,0.039,0.0,0.072,0.001
18/08/2023,07:58:15,0.043,0.0,0.072,0.0
18/08/2023,07:59:15,0.045,0.0,0.073,0.001
18/08/2023,08:00:14,0.048,0.0,0.074,0.001
18/08/2023,08:01:14,0.048,0.0,0.075,0.001
18/08/2023,08:02:15,0.053,0.0,0.075,0.0
18/08/2023,08:03:15,0.061,0.0,0.076,0.001
18/08/2023,08:04:14,0.071,0.0,0.077,0.001
18/08/2023,08:05:15,0.078,0.0,0.079,0.002
18/08/2023,08:06:14,0.081,0.0,0.08,0.001
18/08/2023,08:07:14,0.087,0.0,0.081,0.001
18/08/2023,08:08:15,0.085,0.0,0.083,0.002
18/08/2023,08:09:15,0.087,0.0,0.084,0.001
18/08/2023,08:10:14,0.093,0.0,0.086,0.002
18/08/2023,08:11:15,0.085,0.0,0.087,0.001
18/08/2023,08:12:15,0.087,0.0,0.089,0.002
18/08/2023,08:13:14,0.077,0.0,0.09,0.001
18/08/2023,08:14:14,0.067,0.0,0.091,0.001
18/08/2023,08:15:15,0.064,0.0,0.092,0.001
18/08/2023,08:16:15,0.072,0.0,0.093,0.001
18/08/2023,08:17:14,0.072,0.0,0.095,0.002
18/08/2023,08:18:14,0.074,0.0,0.096,0.001
18/08/2023,08:19:15,0.074,0.0,0.097,0.001
18/08/2023,08:20:15,0.076,0.0,0.098,0.001
18/08/2023,08:21:15,0.083,0.0,0.1,0.002
18/08/2023,08:22:15,0.086,0.0,0.101,0.001
18/08/2023,08:23:15,0.077,0.0,0.102,0.001
18/08/2023,08:24:12,0.094,0.0,0.104,0.002
18/08/2023,08:25:13,0.070,0.0,0.105,0.001
18/08/2023,08:26:15,0.065,0.0,0.106,0.001
18/08/2023,08:27:14,0.082,0.0,0.108,0.002
18/08/2023,08:28:15,0.087,0.0,0.109,0.001
18/08/2023,08:29:12,0.099,0.0,0.111,0.002
18/08/2023,08:30:13,0.102,0.0,0.112,0.001
18/08/2023,08:31:15,0.102,0.0,0.114,0.002
18/08/2023,08:32:14,0.110,0.0,0.116,0.002
18/08/2023,08:33:14,0.121,0.0,0.118,0.002
18/08/2023,08:34:15,0.130,0.0,0.12,0.002
18/08/2023,08:35:15,0.136,0.0,0.122,0.002
18/08/2023,08:36:14,0.143,0.0,0.124,0.002
18/08/2023,08:37:15,0.146,0.0,0.127,0.003
18/08/2023,08:38:15,0.160,0.0,0.129,0.002
18/08/2023,08:39:15,0.174,0.0,0.132,0.003
18/08/2023,08:40:13,0.183,0.0,0.135,0.003
18/08/2023,08:41:13,0.196,0.0,0.138,0.003
18/08/2023,08:42:15,0.209,0.0,0.142,0.004
18/08/2023,08:43:14,0.218,1.0,0.145,0.003
18/08/2023,08:44:14,0.215,0.0,0.149,0.004
18/08/2023,08:45:15,0.210,0.0,0.152,0.003
18/08/2023,08:46:14,0.204,0.0,0.156,0.004
18/08/2023,08:47:14,0.201,0.0,0.159,0.003
18/08/2023,08:48:14,0.196,0.0,0.162,0.003
18/08/2023,08:49:15,0.188,0.0,0.166,0.004
18/08/2023,08:50:15,0.182,0.0,0.169,0.003
18/08/2023,08:51:15,0.177,0.0,0.172,0.003
18/08/2023,08:52:15,0.175,0.0,0.175,0.003
18/08/2023,08:53:13,0.173,0.0,0.177,0.002
18/08/2023,08:54:12,0.173,0.0,0.18,0.003
18/08/2023,08:55:14,0.176,0.0,0.183,0.003
18/08/2023,08:56:15,0.177,0.0,0.186,0.003
18/08/2023,08:57:15,0.167,0.0,0.189,0.003
18/08/2023,08:58:15,0.169,0.0,0.192,0.003
18/08/2023,08:59:15,0.167,0.0,0.195,0.003
18/08/2023,09:00:15,0.176,0.0,0.198,0.003
18/08/2023,09:01:14,0.175,0.0,0.201,0.003
18/08/2023,09:02:15,0.169,0.0,0.203,0.002
18/08/2023,09:03:15,0.176,0.0,0.206,0.003
18/08/2023,09:04:14,0.185,0.0,0.209,0.003
18/08/2023,09:05:15,0.181,0.0,0.212,0.003
18/08/2023,09:06:14,0.204,0.0,0.215,0.003
18/08/2023,09:07:15,0.231,1.0,0.219,0.004
18/08/2023,09:08:14,0.231,1.0,0.223,0.004
18/08/2023,09:09:15,0.240,1.0,0.227,0.004
18/08/2023,09:10:15,0.293,1.0,0.231,0.004
18/08/2023,09:11:15,0.350,1.0,0.237,0.006
18/08/2023,09:12:12,0.366,1.0,0.242,0.005
18/08/2023,09:13:13,0.348,1.0,0.248,0.006
18/08/2023,09:14:15,0.347,1.0,0.254,0.006
18/08/2023,09:15:14,0.363,1.0,0.26,0.006
18/08/2023,09:16:15,0.363,1.0,0.266,0.006
18/08/2023,09:17:14,0.365,1.0,0.272,0.006
18/08/2023,09:18:15,0.377,1.0,0.278,0.006
18/08/2023,09:19:15,0.337,1.0,0.285,0.007
18/08/2023,09:20:14,0.311,1.0,0.29,0.005
18/08/2023,09:21:15,0.281,1.0,0.295,0.005
18/08/2023,09:22:15,0.265,1.0,0.3,0.005
18/08/2023,09:23:15,0.296,1.0,0.304,0.004
18/08/2023,09:24:15,0.352,1.0,0.309,0.005
18/08/2023,09:25:15,0.375,1.0,0.316,0.007
18/08/2023,09:26:12,0.389,1.0,0.322,0.006
18/08/2023,09:27:12,0.395,1.0,0.328,0.006
18/08/2023,09:28:15,0.415,1.0,0.335,0.007
18/08/2023,09:29:14,0.421,1.0,0.342,0.007
18/08/2023,09:30:15,0.427,1.0,0.349,0.007
18/08/2023,09:31:15,0.432,1.0,0.356,0.007
18/08/2023,09:32:15,0.438,1.0,0.364,0.008
18/08/2023,09:33:15,0.448,1.0,0.371,0.007
18/08/2023,09:34:14,0.459,1.0,0.379,0.008
18/08/2023,09:35:14,0.460,1.0,0.386,0.007
18/08/2023,09:36:15,0.448,1.0,0.394,0.008
18/08/2023,09:37:15,0.448,1.0,0.401,0.007
18/08/2023,09:38:15,0.438,1.0,0.409,0.008
18/08/2023,09:39:15,0.436,1.0,0.416,0.007
18/08/2023,09:40:14,0.435,1.0,0.423,0.007
18/08/2023,09:41:15,0.439,1.0,0.43,0.007
18/08/2023,09:42:15,0.451,1.0,0.438,0.008
18/08/2023,09:43:15,0.459,1.0,0.446,0.008
18/08/2023,09:44:15,0.496,1.0,0.454,0.008
18/08/2023,09:45:15,0.517,1.0,0.462,0.008
18/08/2023,09:46:14,0.522,1.0,0.471,0.009
18/08/2023,09:47:14,0.537,1.0,0.479,0.008
18/08/2023,09:48:15,0.537,1.0,0.488,0.009
18/08/2023,09:49:15,0.536,1.0,0.497,0.009
18/08/2023,09:50:14,0.538,1.0,0.506,0.009
18/08/2023,09:51:15,0.532,1.0,0.515,0.009
18/08/2023,09:52:15,0.537,1.0,0.524,0.009
18/08/2023,09:53:15,0.545,1.0,0.533,0.009
18/08/2023,09:54:15,0.554,1.0,0.542,0.009
18/08/2023,09:55:15,0.577,1.0,0.552,0.01
18/08/2023,09:56:14,0.602,1.0,0.561,0.009
18/08/2023,09:57:15,0.613,1.0,0.572,0.011
18/08/2023,09:58:15,0.618,1.0,0.582,0.01
18/08/2023,09:59:14,0.620,1.0,0.592,0.01
18/08/2023,10:00:14,0.616,1.0,0.602,0.01
18/08/2023,10:01:15,0.617,1.0,0.613,0.011
18/08/2023,10:02:15,0.627,1.0,0.623,0.01